Location: Brachbach
(49.1847°N, 9.7240°E)
Time: 07:57:16
(UTC+00:00)

FO-29 - Pass Details

Date: 17 March 2026
Orbit: 801 x 1320 km, 98.5° (Epoch: 17 April)

Event Time Altitude Azimuth Distance (km) Brightness Sun altitude
Rises 19:11:06 0° 17° (NNE) 4,133 12.8 -17.2°
Reaches altitude 10° 19:13:50 10° 23° (NNE) 3,220 12.2 -17.6°
Maximum altitude 19:21:06 48° 97° (E) 1,650 10.2 -18.7°
Drops below altitude 10° 19:28:37 10° 170° (S) 3,340 12.0 -19.8°
Sets 19:31:28 0° 176° (S) 4,299 12.6 -20.3°
